Starlink 31686

operational
NORAD ID: 59579 Int'l Des: 2024-076 Owner: SPXS Country: US Constellation: starlink
LEOCIRCULAR

About Starlink 31686

Description loading...

Live Position

Loading 3D Globe...

Upcoming Passes

Altitude History

Altitude vs Time

uPlot chart will show altitude changes over time

Two-Line Element Set

1 59579U 24076R 25260.07155367 -.00001886 00000-0 -59064-4 0 9996
2 59579 43.0032 269.1860 0000537 292.9943 67.0852 15.27572324 79950
Epoch: Sep 17, 2025 • Age: 21 hours

Current Status

Altitude 483.5 km
Velocity 7.63 km/s
Sub-Earth Point -3.59°S, 107.04°E
Launch Date Apr 23, 2024
Age 1.4 years
Type internet

Technical Details

Classification Payload
Mass 730.00 kg
Dry Mass 700.00 kg
Total Mass 730.00 kg
Length 0.30 m
Diameter 4.10 m
Span 29.00 m
Shape Box + pan
Manufacturer SPXS
Bus Type Starlink V2M
Phase Status In Orbit
Owner/State SPXS/US

Large Constellations

Loading constellations...